Gwinner, ND

3:26 PM CST on December 03, 2016 (GMT -0600)
Gwinner-melroe

Weather History for KGWR - October, 2013

Change the Weather History Date:

Tuesday, October 1, 2013

  Actual Average (KP67) Record (KP67)
Temperature  
Mean Temperature 58 °F -  
Max Temperature 71 °F 67 °F 84 °F (1997)
Min Temperature 44 °F 41 °F 39 °F (1996)
Degree Days  
Heating Degree Days 6    
Growing Degree Days 8 (Base 50)    
Moisture  
Dew Point 40 °F    
Average Humidity 54    
Maximum Humidity 82    
Minimum Humidity 25    
Precipitation  
Precipitation 0.00 in - - ()
Sea Level Pressure  
Sea Level Pressure 29.83 in    
Wind  
Wind Speed 15 mph (West)    
Max Wind Speed 30 mph    
Max Gust Speed 37 mph    
Visibility 10 miles    
Events      
Averages and records for this station are not official NWS values.
T = Trace of Precipitation, MM = Missing Value Source: NWS Daily Summary

Daily Weather History Graph

Daily Weather History Graph

Search for Another Location

Airport or City:

Trip Planner

Search our weather history database for the weather conditions in past years. The results will help you decide how hot, cold, wet, or windy it might be!

Date:

Astronomy

Oct. 01, 2013 Rise Set
Actual Time 7:29 AM CDT 7:09 PM CDT
Civil Twilight 6:59 AM CDT 7:39 PM CDT
Nautical Twilight 6:24 AM CDT 8:14 PM CDT
Astronomical Twilight 5:49 AM CDT 8:49 PM CDT
Moon 3:55 AM CDT (10/1) 5:22 PM CDT (10/1)
Length of Visible Light 12h 40m
Length of Day
11h 40m
Waning Crescent, 12% of the Moon is Illuminated
Oct 1
Waning Crescent
Oct 4
New
Oct 11
First Quarter
Oct 18
Full
Oct 26
Last Quarter

Hourly Weather History & Observations

Time (CDT) Temp. Windchill Dew Point Humidity Pressure Visibility Wind Dir Wind Speed Gust Speed Precip Events Conditions
12:15 AM 62.6 °F - 50.0 °F 63% 29.58 in 10.0 mi NW 29.9 mph 36.8 mph 0.00 in   Clear
12:35 AM 62.6 °F - 50.0 °F 63% 29.58 in 10.0 mi NW 21.9 mph 27.6 mph 0.00 in   Partly Cloudy
12:55 AM 60.8 °F - 51.8 °F 72% 29.59 in 10.0 mi NW 15.0 mph - 0.00 in   Mostly Cloudy
1:15 AM 60.8 °F - 50.0 °F 68% 29.60 in 10.0 mi NW 11.5 mph 17.3 mph 0.00 in   Scattered Clouds
1:35 AM 59.0 °F - 51.8 °F 77% 29.58 in 10.0 mi NNW 5.8 mph - 0.00 in   Clear
1:55 AM 57.2 °F - 50.0 °F 77% 29.60 in 10.0 mi NW 11.5 mph - 0.00 in   Partly Cloudy
2:15 AM 60.8 °F - 48.2 °F 63% 29.63 in 10.0 mi WNW 17.3 mph 25.3 mph 0.00 in   Scattered Clouds
2:35 AM 60.8 °F - 46.4 °F 59% 29.65 in 10.0 mi WNW 17.3 mph 28.8 mph 0.00 in   Scattered Clouds
2:55 AM 60.8 °F - 46.4 °F 59% 29.65 in 10.0 mi WNW 17.3 mph 23.0 mph 0.00 in   Scattered Clouds
3:15 AM 59.0 °F - 44.6 °F 59% 29.66 in 10.0 mi WNW 16.1 mph 26.5 mph 0.00 in   Scattered Clouds
3:35 AM 57.2 °F - 44.6 °F 63% 29.67 in 10.0 mi WNW 13.8 mph 19.6 mph 0.00 in   Scattered Clouds
3:55 AM 57.2 °F - 44.6 °F 63% 29.68 in 10.0 mi West 11.5 mph - 0.00 in   Mostly Cloudy
4:15 AM 57.2 °F - 44.6 °F 63% 29.70 in 10.0 mi West 13.8 mph - 0.00 in   Scattered Clouds
4:35 AM 55.4 °F - 44.6 °F 67% 29.71 in 10.0 mi West 13.8 mph 18.4 mph 0.00 in   Clear
4:55 AM 55.4 °F - 42.8 °F 63% 29.72 in 10.0 mi West 13.8 mph 18.4 mph 0.00 in   Clear
5:15 AM 53.6 °F - 42.8 °F 67% 29.73 in 10.0 mi West 9.2 mph - 0.00 in   Clear
5:35 AM 51.8 °F - 42.8 °F 71% 29.74 in 10.0 mi West 9.2 mph - 0.00 in   Clear
5:55 AM 51.8 °F - 42.8 °F 71% 29.76 in 10.0 mi West 8.1 mph - 0.00 in   Clear
6:15 AM 50.0 °F - 42.8 °F 76% 29.77 in 10.0 mi WSW 9.2 mph - 0.00 in   Clear
6:35 AM 50.0 °F - 42.8 °F 76% 29.78 in 10.0 mi WSW 10.4 mph - 0.00 in   Clear
6:55 AM 48.2 °F - 42.8 °F 82% 29.79 in 10.0 mi West 8.1 mph - 0.00 in   Clear
7:15 AM 48.2 °F - 42.8 °F 82% 29.79 in 10.0 mi West 10.4 mph - 0.00 in   Clear
7:35 AM 48.2 °F - 42.8 °F 82% 29.80 in 10.0 mi WSW 10.4 mph - 0.00 in   Clear
7:55 AM 48.2 °F - 42.8 °F 82% 29.81 in 10.0 mi WSW 9.2 mph - 0.00 in   Clear
8:15 AM 50.0 °F - 42.8 °F 76% 29.82 in 10.0 mi WSW 6.9 mph - 0.00 in   Clear
8:35 AM 51.8 °F - 41.0 °F 67% 29.82 in 10.0 mi WSW 10.4 mph - 0.00 in   Clear
8:55 AM 53.6 °F - 39.2 °F 58% 29.83 in 10.0 mi WSW 13.8 mph - 0.00 in   Clear
9:15 AM 55.4 °F - 39.2 °F 54% 29.84 in 10.0 mi West 12.7 mph 18.4 mph 0.00 in   Clear
9:35 AM 55.4 °F - 39.2 °F 54% 29.85 in 10.0 mi West 12.7 mph 18.4 mph 0.00 in   Clear
9:55 AM 57.2 °F - 39.2 °F 51% 29.86 in 10.0 mi West 13.8 mph 19.6 mph 0.00 in   Clear
10:15 AM 60.8 °F - 37.4 °F 42% 29.86 in 10.0 mi West 20.7 mph - 0.00 in   Clear
10:35 AM 60.8 °F - 37.4 °F 42% 29.86 in 10.0 mi West 17.3 mph 26.5 mph 0.00 in   Clear
10:55 AM 62.6 °F - 35.6 °F 37% 29.87 in 9.0 mi West 21.9 mph 25.3 mph 0.00 in   Clear
11:15 AM 64.4 °F - 35.6 °F 34% 29.88 in 10.0 mi West 19.6 mph 26.5 mph 0.00 in   Clear
11:35 AM 64.4 °F - 35.6 °F 34% 29.88 in 10.0 mi West 18.4 mph 27.6 mph 0.00 in   Clear
11:55 AM 66.2 °F - 35.6 °F 32% 29.88 in 10.0 mi West 23.0 mph 31.1 mph 0.00 in   Clear
12:15 PM 66.2 °F - 35.6 °F 32% 29.88 in 10.0 mi West 19.6 mph 25.3 mph 0.00 in   Clear
12:35 PM 66.2 °F - 33.8 °F 30% 29.88 in 10.0 mi West 21.9 mph 28.8 mph 0.00 in   Clear
12:55 PM 68.0 °F - 33.8 °F 28% 29.88 in 10.0 mi West 21.9 mph 28.8 mph 0.00 in   Clear
1:15 PM 68.0 °F - 33.8 °F 28% 29.88 in 9.0 mi West 24.2 mph 28.8 mph 0.00 in   Clear
1:35 PM 69.8 °F - 33.8 °F 27% 29.88 in 10.0 mi West 19.6 mph 31.1 mph 0.00 in   Clear
1:55 PM 69.8 °F - 33.8 °F 27% 29.88 in 10.0 mi West 21.9 mph 31.1 mph 0.00 in   Clear
2:15 PM 69.8 °F - 33.8 °F 27% 29.88 in 10.0 mi West 21.9 mph 28.8 mph 0.00 in   Clear
2:35 PM 69.8 °F - 35.6 °F 28% 29.88 in 10.0 mi West 18.4 mph 31.1 mph 0.00 in   Clear
2:55 PM 69.8 °F - 35.6 °F 28% 29.88 in 10.0 mi West 21.9 mph 26.5 mph 0.00 in   Clear
3:15 PM 71.6 °F - 35.6 °F 27% 29.88 in 10.0 mi WSW 20.7 mph 26.5 mph 0.00 in   Clear
3:35 PM 71.6 °F - 35.6 °F 27% 29.89 in 10.0 mi West 16.1 mph 27.6 mph 0.00 in   Clear
3:55 PM 71.6 °F - 35.6 °F 27% 29.88 in 9.0 mi West 19.6 mph 27.6 mph 0.00 in   Clear
4:15 PM 71.6 °F - 35.6 °F 27% 29.88 in 10.0 mi West 18.4 mph 28.8 mph 0.00 in   Clear
4:35 PM 71.6 °F - 35.6 °F 27% 29.88 in 10.0 mi West 11.5 mph 25.3 mph 0.00 in   Clear
4:55 PM 71.6 °F - 35.6 °F 27% 29.88 in 10.0 mi West 18.4 mph 21.9 mph 0.00 in   Clear
5:15 PM 71.6 °F - 33.8 °F 25% 29.89 in 10.0 mi West 17.3 mph 20.7 mph 0.00 in   Clear
5:35 PM 69.8 °F - 35.6 °F 28% 29.89 in 10.0 mi West 16.1 mph 21.9 mph 0.00 in   Clear
5:55 PM 69.8 °F - 35.6 °F 28% 29.89 in 10.0 mi West 13.8 mph 21.9 mph 0.00 in   Clear
6:15 PM 68.0 °F - 35.6 °F 30% 29.90 in 10.0 mi West 12.7 mph - 0.00 in   Clear
6:35 PM 66.2 °F - 35.6 °F 32% 29.90 in 10.0 mi West 8.1 mph - 0.00 in   Clear
6:55 PM 62.6 °F - 37.4 °F 39% 29.90 in 10.0 mi West 6.9 mph - 0.00 in   Clear
7:15 PM 59.0 °F - 37.4 °F 45% 29.91 in 7.0 mi West 6.9 mph - 0.00 in   Clear
7:35 PM 55.4 °F - 37.4 °F 51% 29.92 in 7.0 mi WSW 6.9 mph - 0.00 in   Clear
7:55 PM 55.4 °F - 37.4 °F 51% 29.92 in 10.0 mi WSW 5.8 mph - 0.00 in   Clear
8:15 PM 51.8 °F - 39.2 °F 62% 29.93 in 8.0 mi SW 4.6 mph - 0.00 in   Clear
8:35 PM 51.8 °F - 39.2 °F 62% 29.94 in 9.0 mi WSW 9.2 mph - 0.00 in   Clear
8:55 PM 50.0 °F - 39.2 °F 66% 29.94 in 10.0 mi WSW 8.1 mph - 0.00 in   Clear
9:15 PM 48.2 °F - 41.0 °F 76% 29.95 in 10.0 mi SW 5.8 mph - 0.00 in   Clear
9:35 PM 48.2 °F - 41.0 °F 76% 29.95 in 10.0 mi SW 6.9 mph - 0.00 in   Clear
9:55 PM 48.2 °F - 41.0 °F 76% 29.95 in 10.0 mi SW 6.9 mph - 0.00 in   Clear
10:15 PM 48.2 °F - 39.2 °F 71% 29.96 in 10.0 mi WSW 6.9 mph - 0.00 in   Clear
10:35 PM 48.2 °F - 39.2 °F 71% 29.96 in 10.0 mi WSW 5.8 mph - 0.00 in   Clear
10:55 PM 46.4 °F 43.5 °F 39.2 °F 76% 29.97 in 10.0 mi WSW 5.8 mph - 0.00 in   Clear
11:15 PM 46.4 °F 42.9 °F 39.2 °F 76% 29.97 in 10.0 mi West 6.9 mph - 0.00 in   Clear
11:35 PM 46.4 °F 45.2 °F 39.2 °F 76% 29.97 in 10.0 mi WSW 3.5 mph - 0.00 in   Clear
11:55 PM 44.6 °F 40.2 °F 39.2 °F 81% 29.98 in 10.0 mi SSW 8.1 mph - 0.00 in   Clear